TimeEST,TemperatureF,Dew PointF,Humidity,Sea Level PressureIn,VisibilityMPH,Wind Direction,Wind SpeedMPH,Gust SpeedMPH,PrecipitationIn,Events,Conditions,WindDirDegrees,DateUTC
12:53 AM,71.1,70.0,96,30.08,10.0,WSW,4.6,-,N/A,,Clear,240,2014-01-12 05:53:00
1:53 AM,72.0,70.0,93,30.06,10.0,SSW,3.5,-,N/A,,Mostly Cloudy,200,2014-01-12 06:53:00
2:40 AM,71.6,69.8,94,30.06,10.0,SSW,5.8,-,N/A,,Mostly Cloudy,210,2014-01-12 07:40:00
2:53 AM,72.0,71.1,97,30.06,10.0,SW,6.9,-,N/A,,Mostly Cloudy,230,2014-01-12 07:53:00
3:27 AM,71.6,71.6,100,30.05,10.0,SW,5.8,-,N/A,,Scattered Clouds,230,2014-01-12 08:27:00
3:53 AM,72.0,70.0,93,30.06,10.0,WSW,5.8,-,N/A,,Clear,240,2014-01-12 08:53:00
4:17 AM,71.6,69.8,94,30.05,10.0,WSW,4.6,-,N/A,,Scattered Clouds,240,2014-01-12 09:17:00
4:39 AM,71.6,69.8,94,30.04,10.0,SW,3.5,-,N/A,,Mostly Cloudy,230,2014-01-12 09:39:00
4:53 AM,71.1,70.0,96,30.06,10.0,West,5.8,-,N/A,,Mostly Cloudy,280,2014-01-12 09:53:00
5:14 AM,71.6,69.8,94,30.06,10.0,West,5.8,-,N/A,,Overcast,270,2014-01-12 10:14:00
5:21 AM,71.6,69.8,94,30.07,10.0,West,6.9,-,N/A,,Overcast,260,2014-01-12 10:21:00
5:28 AM,71.6,69.8,94,30.07,10.0,WSW,6.9,-,N/A,,Overcast,250,2014-01-12 10:28:00
5:36 AM,71.6,69.8,94,30.07,10.0,West,5.8,-,N/A,,Overcast,260,2014-01-12 10:36:00
5:43 AM,71.6,69.8,94,30.07,10.0,West,5.8,-,N/A,,Overcast,260,2014-01-12 10:43:00
5:53 AM,71.1,70.0,96,30.08,10.0,West,8.1,-,N/A,,Mostly Cloudy,270,2014-01-12 10:53:00
6:21 AM,71.6,69.8,94,30.08,10.0,WNW,5.8,-,N/A,,Mostly Cloudy,290,2014-01-12 11:21:00
6:36 AM,71.6,69.8,94,30.08,10.0,West,6.9,-,N/A,,Scattered Clouds,280,2014-01-12 11:36:00
6:53 AM,71.1,69.1,93,30.09,10.0,WNW,6.9,-,N/A,,Scattered Clouds,290,2014-01-12 11:53:00
7:53 AM,70.0,66.0,87,30.12,10.0,NW,12.7,-,N/A,,Overcast,320,2014-01-12 12:53:00
8:53 AM,70.0,64.0,81,30.16,10.0,North,11.5,-,N/A,,Overcast,350,2014-01-12 13:53:00
9:53 AM,72.0,63.0,73,30.18,10.0,NNW,11.5,-,N/A,,Scattered Clouds,330,2014-01-12 14:53:00
10:53 AM,73.9,63.0,68,30.17,10.0,NNW,9.2,-,N/A,,Clear,340,2014-01-12 15:53:00
11:53 AM,75.0,61.0,62,30.15,10.0,NW,8.1,-,N/A,,Clear,310,2014-01-12 16:53:00
12:53 PM,78.1,57.9,50,30.12,10.0,NNW,6.9,-,N/A,,Clear,330,2014-01-12 17:53:00
1:53 PM,80.1,55.0,42,30.11,10.0,NNW,9.2,-,N/A,,Clear,340,2014-01-12 18:53:00
2:53 PM,80.1,55.9,43,30.10,10.0,NNE,5.8,-,N/A,,Clear,20,2014-01-12 19:53:00
3:53 PM,75.9,61.0,60,30.12,10.0,ENE,12.7,-,N/A,,Clear,60,2014-01-12 20:53:00
4:53 PM,73.9,61.0,64,30.14,10.0,NE,9.2,-,N/A,,Clear,50,2014-01-12 21:53:00
5:53 PM,71.1,60.1,68,30.15,10.0,NE,5.8,-,N/A,,Clear,40,2014-01-12 22:53:00
6:53 PM,70.0,60.1,71,30.16,10.0,NNE,4.6,-,N/A,,Clear,30,2014-01-12 23:53:00
7:53 PM,68.0,60.1,76,30.17,10.0,North,3.5,-,N/A,,Clear,10,2014-01-13 00:53:00
8:53 PM,66.0,60.1,81,30.18,10.0,North,4.6,-,N/A,,Clear,360,2014-01-13 01:53:00
9:53 PM,64.9,59.0,81,30.18,10.0,North,5.8,-,N/A,,Clear,360,2014-01-13 02:53:00
10:53 PM,64.9,59.0,81,30.17,10.0,North,3.5,-,N/A,,Clear,350,2014-01-13 03:53:00
11:53 PM,64.0,59.0,84,30.16,10.0,Calm,Calm,-,N/A,,Clear,0,2014-01-13 04:53:00